2022/12/08 11:10:00,52.1, 6.7
2022/12/08 11:20:00, 0.0, 6.9
2022/12/08 11:30:00, 0.0, 7.5
2022/12/08 11:40:00, 0.0, 7.7
2022/12/08 11:50:00, 0.0, 6.3
2022/12/08 12:00:00, 0.0, 6.6
2022/12/08 12:10:00, 0.0, 7.5
2022/12/08 12:20:00, 0.0, 6.8
2022/12/08 12:30:00, 0.0, 7.1
2022/12/08 12:40:00, 0.0, 7.2
2022/12/08 12:50:00, 0.0, 7.5
2022/12/08 13:00:00, 0.0, 8.2
2022/12/08 13:10:00, 0.0, 9.4
2022/12/08 13:20:00, 0.0, 9.0
2022/12/08 13:30:00, 0.0, 9.4
2022/12/08 13:40:00, 0.0, 9.1
2022/12/08 13:50:00, 0.0, 9.0
2022/12/08 14:00:00, 0.0, 8.8
2022/12/08 14:10:00, 0.0, 8.4
2022/12/08 14:20:00, 0.0, 8.6
2022/12/08 14:30:00, 0.0, 8.8
2022/12/08 14:40:00, 0.0, 8.3
2022/12/08 14:50:00, 0.1, 8.2
2022/12/08 15:00:00, 0.0, 8.5
2022/12/08 15:10:00, 0.0, 8.3
2022/12/08 15:20:00, 0.0, 7.6
2022/12/08 15:30:00, 0.1, 7.2
2022/12/08 15:40:00, 0.1, 6.9
2022/12/08 15:50:00, 0.1, 6.7
2022/12/08 16:00:00, 0.1, 6.4
2022/12/08 16:10:00, 0.1, 6.0
2022/12/08 16:20:00, 0.2, 5.7
2022/12/08 16:30:00, 0.2, 5.4
2022/12/08 16:40:00, 0.2, 4.9
2022/12/08 16:50:00, 0.1, 4.5
2022/12/08 17:00:00, 0.1, 3.8
2022/12/08 17:10:00, 0.1, 4.1
2022/12/08 17:20:00, 0.2, 3.6
2022/12/08 17:30:00, 0.1, 3.7
2022/12/08 17:40:00, 0.1, 3.3
2022/12/08 17:50:00, 0.1, 3.0
2022/12/08 18:00:00, 0.1, 2.8
2022/12/08 18:10:00, 0.2, 2.8
2022/12/08 18:20:00, 0.2, 2.6
2022/12/08 18:30:00, 0.2, 2.8
2022/12/08 18:40:00, 0.2, 2.0
2022/12/08 18:50:00, 0.3, 2.7
2022/12/08 19:00:00, 0.2, 2.1
2022/12/08 19:10:00, 0.2, 2.3
2022/12/08 19:20:00, 0.2, 2.0
2022/12/08 19:30:00, 0.2, 2.1
2022/12/08 19:40:00, 0.2, 2.2
2022/12/08 19:50:00, 0.2, 2.4
2022/12/08 20:00:00, 0.2, 2.4
2022/12/08 20:10:00, 0.2, 2.4
2022/12/08 20:20:00, 0.2, 2.2
2022/12/08 20:30:00, 0.2, 2.4
2022/12/08 20:40:00, 0.1, 2.6
2022/12/08 20:50:00, 0.1, 2.4
2022/12/08 21:00:00, 0.2, 2.8
2022/12/08 21:10:00, 0.2, 2.4
2022/12/08 21:20:00, 0.1, 1.7
2022/12/08 21:30:00, 0.2, 2.0
2022/12/08 21:40:00, 0.1, 2.3
2022/12/08 21:50:00, 0.1, 2.5
2022/12/08 22:00:00, 0.2, 3.1
2022/12/08 22:10:00, 0.2, 2.9
2022/12/08 22:20:00, 0.1, 3.0
2022/12/08 22:30:00, 0.2, 2.9
2022/12/08 22:40:00, 0.2, 2.5
2022/12/08 22:50:00, 0.2, 2.6
2022/12/08 23:00:00, 0.2, 2.4
2022/12/08 23:10:00, 0.3, 2.2
2022/12/08 23:20:00, 0.3, 2.5
2022/12/08 23:30:00, 0.3, 2.1
2022/12/08 23:40:00, 0.3, 2.8
2022/12/08 23:50:00, 0.3, 2.8
